Time,TemperatureF,DewpointF,PressureIn,WindDirection,WindDirectionDegrees,WindSpeedMPH,WindSpeedGustMPH,Humidity,HourlyPrecipIn,Conditions,Clouds,dailyrainin,SoftwareType,DateUTC
2013-04-18 00:22:00,79.0,-99.9,-100.00,North,-999,-999.0,-999.0,-999,0.00,,,0.00,,2013-04-18 05:22:00,
2013-04-18 00:33:00,79.0,-99.9,-100.00,North,-999,-999.0,-999.0,-999,0.00,,,0.00,,2013-04-18 05:33:00,
2013-04-18 00:42:00,79.0,-99.9,-100.00,North,-999,-999.0,-999.0,-999,0.00,,,0.00,,2013-04-18 05:42:00,
2013-04-18 01:22:00,78.0,-99.9,-100.00,North,-999,-999.0,-999.0,-999,0.00,,,0.00,,2013-04-18 06:22:00,
2013-04-18 01:32:00,78.0,-99.9,-100.00,North,-999,-999.0,-999.0,-999,0.00,,,0.00,,2013-04-18 06:32:00,
2013-04-18 01:42:00,78.0,-99.9,-100.00,North,-999,-999.0,-999.0,-999,0.00,,,0.00,,2013-04-18 06:42:00,
2013-04-18 02:22:00,79.0,-99.9,-100.00,North,-999,-999.0,-999.0,-999,0.00,,,0.00,,2013-04-18 07:22:00,
2013-04-18 02:32:00,79.0,-99.9,-100.00,North,-999,-999.0,-999.0,-999,0.00,,,0.00,,2013-04-18 07:32:00,
2013-04-18 02:42:00,79.0,-99.9,-100.00,North,-999,-999.0,-999.0,-999,0.00,,,0.00,,2013-04-18 07:42:00,
2013-04-18 03:22:00,78.0,-99.9,-100.00,North,-999,-999.0,-999.0,-999,0.00,,,0.00,,2013-04-18 08:22:00,
2013-04-18 03:32:00,78.0,-99.9,-100.00,North,-999,-999.0,-999.0,-999,0.00,,,0.00,,2013-04-18 08:32:00,
2013-04-18 03:42:00,78.0,-99.9,-100.00,North,-999,-999.0,-999.0,-999,0.00,,,0.00,,2013-04-18 08:42:00,
2013-04-18 04:23:00,78.0,-99.9,-100.00,North,-999,-999.0,-999.0,-999,0.00,,,0.00,,2013-04-18 09:23:00,
2013-04-18 04:33:00,78.0,-99.9,-100.00,North,-999,-999.0,-999.0,-999,0.00,,,0.00,,2013-04-18 09:33:00,
2013-04-18 04:43:00,78.0,-99.9,-100.00,North,-999,-999.0,-999.0,-999,0.00,,,0.00,,2013-04-18 09:43:00,
2013-04-18 05:23:00,78.0,-99.9,-100.00,North,-999,-999.0,-999.0,-999,0.00,,,0.00,,2013-04-18 10:23:00,
2013-04-18 05:33:00,78.0,-99.9,-100.00,North,-999,-999.0,-999.0,-999,0.00,,,0.00,,2013-04-18 10:33:00,
2013-04-18 05:42:00,78.0,-99.9,-100.00,North,-999,-999.0,-999.0,-999,0.00,,,0.00,,2013-04-18 10:42:00,
2013-04-18 06:22:00,77.0,-99.9,-100.00,North,-999,-999.0,-999.0,-999,0.00,,,0.00,,2013-04-18 11:22:00,
2013-04-18 06:33:00,77.0,-99.9,-100.00,North,-999,-999.0,-999.0,-999,0.00,,,0.00,,2013-04-18 11:33:00,
2013-04-18 06:42:00,77.0,-99.9,-100.00,North,-999,-999.0,-999.0,-999,0.00,,,0.00,,2013-04-18 11:42:00,
2013-04-18 07:23:00,77.0,-99.9,-100.00,North,-999,-999.0,-999.0,-999,0.00,,,0.00,,2013-04-18 12:23:00,
2013-04-18 07:33:00,77.0,-99.9,-100.00,North,-999,-999.0,-999.0,-999,0.00,,,0.00,,2013-04-18 12:33:00,
2013-04-18 07:42:00,77.0,-99.9,-100.00,North,-999,-999.0,-999.0,-999,0.00,,,0.00,,2013-04-18 12:42:00,
2013-04-18 08:22:00,74.0,-99.9,-100.00,North,-999,-999.0,-999.0,-999,0.00,,,0.00,,2013-04-18 13:22:00,
2013-04-18 08:33:00,74.0,-99.9,-100.00,North,-999,-999.0,-999.0,-999,0.00,,,0.00,,2013-04-18 13:33:00,
2013-04-18 08:43:00,74.0,-99.9,-100.00,North,-999,-999.0,-999.0,-999,0.00,,,0.00,,2013-04-18 13:43:00,
2013-04-18 09:23:00,70.0,-99.9,-100.00,North,-999,-999.0,-999.0,-999,0.07,,,0.07,,2013-04-18 14:23:00,
2013-04-18 09:33:00,70.0,-99.9,-100.00,North,-999,-999.0,-999.0,-999,0.07,,,0.07,,2013-04-18 14:33:00,
2013-04-18 09:43:00,70.0,-99.9,-100.00,North,-999,-999.0,-999.0,-999,0.07,,,0.07,,2013-04-18 14:43:00,
2013-04-18 10:23:00,67.0,-99.9,-100.00,North,-999,-999.0,-999.0,-999,0.35,,,0.42,,2013-04-18 15:23:00,
2013-04-18 10:33:00,67.0,-99.9,-100.00,North,-999,-999.0,-999.0,-999,0.35,,,0.42,,2013-04-18 15:33:00,
2013-04-18 10:43:00,67.0,-99.9,-100.00,North,-999,-999.0,-999.0,-999,0.35,,,0.42,,2013-04-18 15:43:00,
2013-04-18 11:23:00,68.0,-99.9,-100.00,North,-999,-999.0,-999.0,-999,0.05,,,0.47,,2013-04-18 16:23:00,
2013-04-18 11:33:00,68.0,-99.9,-100.00,North,-999,-999.0,-999.0,-999,0.05,,,0.47,,2013-04-18 16:33:00,
2013-04-18 11:43:00,68.0,-99.9,-100.00,North,-999,-999.0,-999.0,-999,0.05,,,0.47,,2013-04-18 16:43:00,
2013-04-18 12:23:00,64.0,-99.9,-100.00,North,-999,-999.0,-999.0,-999,0.00,,,0.47,,2013-04-18 17:23:00,
2013-04-18 12:33:00,64.0,-99.9,-100.00,North,-999,-999.0,-999.0,-999,0.00,,,0.47,,2013-04-18 17:33:00,
2013-04-18 12:43:00,64.0,-99.9,-100.00,North,-999,-999.0,-999.0,-999,0.00,,,0.47,,2013-04-18 17:43:00,
2013-04-18 13:23:00,54.0,-99.9,-100.00,North,-999,-999.0,-999.0,-999,0.00,,,0.47,,2013-04-18 18:23:00,
2013-04-18 13:33:00,54.0,-99.9,-100.00,North,-999,-999.0,-999.0,-999,0.00,,,0.47,,2013-04-18 18:33:00,
2013-04-18 13:43:00,54.0,-99.9,-100.00,North,-999,-999.0,-999.0,-999,0.00,,,0.47,,2013-04-18 18:43:00,
2013-04-18 14:23:00,51.0,-99.9,-100.00,North,-999,-999.0,-999.0,-999,0.01,,,0.48,,2013-04-18 19:23:00,
2013-04-18 14:33:00,51.0,-99.9,-100.00,North,-999,-999.0,-999.0,-999,0.01,,,0.48,,2013-04-18 19:33:00,
2013-04-18 14:43:00,51.0,-99.9,-100.00,North,-999,-999.0,-999.0,-999,0.01,,,0.48,,2013-04-18 19:43:00,
2013-04-18 15:23:00,49.0,-99.9,-100.00,North,-999,-999.0,-999.0,-999,0.00,,,0.48,,2013-04-18 20:23:00,
2013-04-18 15:33:00,49.0,-99.9,-100.00,North,-999,-999.0,-999.0,-999,0.00,,,0.48,,2013-04-18 20:33:00,
2013-04-18 15:43:00,49.0,-99.9,-100.00,North,-999,-999.0,-999.0,-999,0.00,,,0.48,,2013-04-18 20:43:00,
2013-04-18 16:22:00,47.0,-99.9,-100.00,North,-999,-999.0,-999.0,-999,0.00,,,0.48,,2013-04-18 21:22:00,
2013-04-18 16:33:00,47.0,-99.9,-100.00,North,-999,-999.0,-999.0,-999,0.00,,,0.48,,2013-04-18 21:33:00,
2013-04-18 16:43:00,47.0,-99.9,-100.00,North,-999,-999.0,-999.0,-999,0.00,,,0.48,,2013-04-18 21:43:00,
2013-04-18 17:23:00,47.0,-99.9,-100.00,North,-999,-999.0,-999.0,-999,0.00,,,0.48,,2013-04-18 22:23:00,
2013-04-18 17:33:00,47.0,-99.9,-100.00,North,-999,-999.0,-999.0,-999,0.00,,,0.48,,2013-04-18 22:33:00,
2013-04-18 17:42:00,47.0,-99.9,-100.00,North,-999,-999.0,-999.0,-999,0.00,,,0.48,,2013-04-18 22:42:00,
2013-04-18 18:22:00,47.0,-99.9,-100.00,North,-999,-999.0,-999.0,-999,0.00,,,0.48,,2013-04-18 23:22:00,
2013-04-18 18:32:00,47.0,-99.9,-100.00,North,-999,-999.0,-999.0,-999,0.00,,,0.48,,2013-04-18 23:32:00,
2013-04-18 18:42:00,47.0,-99.9,-100.00,North,-999,-999.0,-999.0,-999,0.00,,,0.48,,2013-04-18 23:42:00,
2013-04-18 19:22:00,47.0,-99.9,-100.00,North,-999,-999.0,-999.0,-999,0.00,,,0.48,,2013-04-19 00:22:00,
2013-04-18 19:32:00,47.0,-99.9,-100.00,North,-999,-999.0,-999.0,-999,0.00,,,0.48,,2013-04-19 00:32:00,
2013-04-18 19:42:00,47.0,-99.9,-100.00,North,-999,-999.0,-999.0,-999,0.00,,,0.48,,2013-04-19 00:42:00,
2013-04-18 20:22:00,46.0,-99.9,-100.00,North,-999,-999.0,-999.0,-999,0.00,,,0.48,,2013-04-19 01:22:00,
2013-04-18 20:32:00,46.0,-99.9,-100.00,North,-999,-999.0,-999.0,-999,0.00,,,0.48,,2013-04-19 01:32:00,
2013-04-18 20:42:00,46.0,-99.9,-100.00,North,-999,-999.0,-999.0,-999,0.00,,,0.48,,2013-04-19 01:42:00,
2013-04-18 21:22:00,46.0,-99.9,-100.00,North,-999,-999.0,-999.0,-999,0.00,,,0.48,,2013-04-19 02:22:00,
2013-04-18 21:32:00,46.0,-99.9,-100.00,North,-999,-999.0,-999.0,-999,0.00,,,0.48,,2013-04-19 02:32:00,
2013-04-18 21:42:00,46.0,-99.9,-100.00,North,-999,-999.0,-999.0,-999,0.00,,,0.48,,2013-04-19 02:42:00,
2013-04-18 22:22:00,45.0,-99.9,-100.00,North,-999,-999.0,-999.0,-999,0.00,,,0.48,,2013-04-19 03:22:00,
2013-04-18 22:33:00,45.0,-99.9,-100.00,North,-999,-999.0,-999.0,-999,0.00,,,0.48,,2013-04-19 03:33:00,
2013-04-18 22:43:00,45.0,-99.9,-100.00,North,-999,-999.0,-999.0,-999,0.00,,,0.48,,2013-04-19 03:43:00,
2013-04-18 23:24:00,46.0,-99.9,-100.00,North,-999,-999.0,-999.0,-999,0.00,,,0.48,,2013-04-19 04:24:00,
2013-04-18 23:33:00,46.0,-99.9,-100.00,North,-999,-999.0,-999.0,-999,0.00,,,0.48,,2013-04-19 04:33:00,
2013-04-18 23:43:00,46.0,-99.9,-100.00,North,-999,-999.0,-999.0,-999,0.00,,,0.48,,2013-04-19 04:43:00,